Total_Precipitation_Accumulation
1.50 1.48 1.45 1.41 1.42 1.48 1.47 1.39 1.32 1.24 1.14 1.10 1.00 0.94 0.91 0.94 1.00 1.08 1.14 1.19 1.24 1.27 1.32 1.34 1.36 1.36 1.42 1.47 1.50 1.58 1.72 1.82 1.84 1.64 1.46 1.39 1.33 1.22 1.18 1.16 1.13 1.06 0.97
1.24 1.15 1.17 1.15 1.16 1.20 1.22 1.11 1.06 1.05 0.98 0.91 0.80 0.76 0.75 0.79 0.85 0.90 0.95 0.99 1.10 1.12 1.11 1.13 1.14 1.16 1.21 1.23 1.28 1.30 1.40 1.54 1.62 1.62 1.53 1.47 1.38 1.26 1.21 1.24 1.05 0.88 0.86
1.07 1.03 1.02 1.03 1.04 1.05 1.05 1.02 0.96 0.94 0.91 0.84 0.74 0.71 0.69 0.69 0.71 0.75 0.80 0.79 0.84 0.92 0.95 1.01 1.04 1.07 1.05 0.99 1.04 1.12 1.20 1.28 1.46 1.49 1.44 1.37 1.28 1.18 1.25 1.16 1.07 1.12 0.85
0.95 0.93 0.94 0.95 0.97 0.97 1.00 1.05 1.01 0.90 0.82 0.77 0.72 0.67 0.66 0.64 0.66 0.67 0.64 0.69 0.74 0.79 0.81 0.85 0.88 0.93 0.95 0.97 0.99 1.11 1.18 1.30 1.38 1.39 1.38 1.35 1.26 1.17 1.26 1.28 1.23 1.18 0.99
0.89 0.88 0.86 0.82 0.81 0.82 0.89 0.93 0.94 0.88 0.77 0.70 0.65 0.62 0.57 0.53 0.50 0.52 0.52 0.57 0.65 0.66 0.71 0.71 0.71 0.78 0.87 0.87 0.87 0.97 1.10 1.26 1.28 1.29 1.30 1.32 1.25 1.25 1.26 1.23 1.23 1.20 1.08
0.96 0.95 0.90 0.85 0.79 0.79 0.78 0.81 0.80 0.74 0.69 0.64 0.60 0.57 0.52 0.42 0.44 0.44 0.44 0.51 0.61 0.65 0.64 0.62 0.59 0.60 0.67 0.74 0.77 0.84 0.97 1.07 1.16 1.23 1.25 1.25 1.24 1.30 1.34 1.34 1.32 1.32 1.29
0.91 0.88 0.87 0.83 0.78 0.74 0.69 0.67 0.69 0.73 0.69 0.62 0.58 0.57 0.60 0.53 0.38 0.32 0.35 0.45 0.60 0.61 0.61 0.64 0.58 0.55 0.63 0.67 0.70 0.71 0.75 0.78 0.89 1.08 1.22 1.29 1.36 1.47 1.54 1.50 1.44 1.41 1.41
0.82 0.80 0.76 0.71 0.71 0.72 0.67 0.65 0.66 0.69 0.67 0.64 0.61 0.65 0.70 0.56 0.38 0.27 0.31 0.45 0.55 0.50 0.51 0.59 0.66 0.69 0.65 0.64 0.67 0.71 0.76 0.77 0.80 0.87 1.09 1.18 1.20 1.34 1.48 1.50 1.47 1.40 1.39
0.79 0.77 0.69 0.62 0.66 0.68 0.66 0.65 0.68 0.65 0.64 0.62 0.63 0.71 0.73 0.59 0.42 0.32 0.35 0.46 0.53 0.50 0.51 0.50 0.52 0.59 0.58 0.63 0.70 0.85 0.90 0.92 0.74 0.78 0.90 0.97 1.01 1.10 1.21 1.35 1.49 1.57 1.55
0.77 0.73 0.66 0.64 0.66 0.69 0.71 0.69 0.63 0.63 0.60 0.54 0.59 0.68 0.67 0.59 0.41 0.32 0.33 0.38 0.47 0.57 0.63 0.63 0.58 0.55 0.53 0.59 0.73 0.87 0.95 0.97 0.98 1.09 1.21 1.20 1.16 1.18 1.17 1.33 1.57 1.64 1.61
0.65 0.64 0.66 0.67 0.63 0.60 0.62 0.64 0.61 0.56 0.57 0.56 0.57 0.61 0.65 0.50 0.37 0.32 0.37 0.43 0.49 0.57 0.65 0.71 0.66 0.59 0.55 0.56 0.61 0.75 0.86 0.87 1.05 1.40 1.44 1.32 1.20 1.20 1.17 1.21 1.40 1.52 1.59
0.70 0.70 0.66 0.62 0.51 0.48 0.57 0.61 0.56 0.55 0.59 0.62 0.62 0.65 0.61 0.47 0.36 0.32 0.35 0.38 0.41 0.52 0.66 0.64 0.61 0.58 0.54 0.57 0.59 0.69 0.79 0.92 1.18 1.51 1.48 1.29 1.15 1.10 1.06 1.01 1.11 1.25 1.38
0.74 0.69 0.63 0.55 0.48 0.47 0.52 0.54 0.52 0.52 0.49 0.47 0.50 0.55 0.51 0.42 0.37 0.30 0.30 0.32 0.33 0.41 0.52 0.54 0.52 0.51 0.56 0.68 0.72 0.78 0.90 1.12 1.30 1.41 1.35 1.16 1.03 0.99 0.94 0.92 0.93 1.07 1.13
0.77 0.68 0.59 0.52 0.46 0.42 0.42 0.40 0.40 0.41 0.41 0.40 0.40 0.42 0.40 0.36 0.29 0.25 0.27 0.30 0.30 0.34 0.42 0.53 0.61 0.67 0.76 0.89 1.00 1.08 1.11 1.15 1.17 1.21 1.14 1.02 0.92 0.90 0.90 0.84 0.86 0.93 1.06
0.76 0.63 0.55 0.47 0.40 0.38 0.32 0.26 0.24 0.26 0.26 0.28 0.27 0.24 0.26 0.26 0.20 0.21 0.24 0.27 0.28 0.31 0.36 0.52 0.74 0.86 0.97 1.02 1.06 1.12 1.11 1.03 0.98 0.95 0.92 0.89 0.89 0.89 0.87 0.78 0.80 0.85 0.96
0.63 0.56 0.48 0.42 0.38 0.30 0.28 0.24 0.17 0.16 0.17 0.18 0.20 0.19 0.16 0.17 0.17 0.17 0.19 0.21 0.24 0.29 0.36 0.58 0.77 0.87 0.94 1.00 1.01 1.00 0.96 0.90 0.84 0.84 0.83 0.78 0.75 0.77 0.80 0.78 0.78 0.83 0.93
0.53 0.47 0.41 0.37 0.35 0.30 0.30 0.35 0.35 0.25 0.18 0.18 0.18 0.18 0.17 0.17 0.16 0.15 0.15 0.16 0.20 0.28 0.39 0.59 0.72 0.78 0.88 0.96 0.91 0.88 0.88 0.82 0.76 0.72 0.72 0.70 0.64 0.64 0.72 0.78 0.79 0.85 0.89
0.42 0.37 0.36 0.35 0.33 0.32 0.30 0.30 0.33 0.39 0.38 0.30 0.19 0.16 0.15 0.16 0.15 0.14 0.15 0.17 0.26 0.34 0.49 0.63 0.68 0.70 0.74 0.78 0.77 0.78 0.80 0.76 0.71 0.70 0.70 0.68 0.66 0.63 0.66 0.73 0.77 0.77 0.80
0.39 0.39 0.38 0.37 0.34 0.30 0.28 0.26 0.27 0.32 0.37 0.35 0.27 0.20 0.17 0.20 0.21 0.21 0.21 0.24 0.33 0.40 0.47 0.52 0.59 0.64 0.68 0.68 0.67 0.64 0.65 0.67 0.66 0.66 0.66 0.65 0.66 0.65 0.66 0.66 0.64 0.58 0.62
0.38 0.35 0.36 0.36 0.35 0.31 0.28 0.27 0.28 0.32 0.35 0.34 0.29 0.23 0.24 0.31 0.35 0.32 0.29 0.27 0.29 0.33 0.39 0.46 0.52 0.54 0.56 0.57 0.54 0.50 0.49 0.52 0.54 0.53 0.54 0.59 0.61 0.61 0.61 0.59 0.57 0.55 0.56
0.36 0.34 0.32 0.32 0.29 0.26 0.25 0.24 0.27 0.31 0.32 0.32 0.26 0.24 0.29 0.34 0.40 0.39 0.37 0.35 0.33 0.34 0.35 0.40 0.43 0.44 0.41 0.40 0.42 0.41 0.39 0.40 0.42 0.46 0.46 0.47 0.48 0.47 0.43 0.39 0.37 0.38 0.42
0.34 0.31 0.26 0.26 0.25 0.25 0.25 0.24 0.26 0.26 0.26 0.28 0.26 0.23 0.27 0.29 0.33 0.34 0.36 0.37 0.36 0.35 0.36 0.40 0.40 0.38 0.36 0.37 0.41 0.41 0.36 0.32 0.32 0.38 0.40 0.38 0.36 0.35 0.35 0.33 0.31 0.31 0.34
0.30 0.27 0.23 0.20 0.22 0.25 0.27 0.28 0.26 0.26 0.26 0.26 0.23 0.21 0.23 0.27 0.27 0.30 0.34 0.33 0.31 0.32 0.33 0.36 0.37 0.37 0.36 0.36 0.37 0.35 0.32 0.31 0.30 0.32 0.39 0.39 0.36 0.33 0.31 0.30 0.30 0.30 0.31
0.25 0.25 0.25 0.22 0.25 0.31 0.29 0.25 0.24 0.24 0.24 0.23 0.23 0.22 0.23 0.24 0.26 0.30 0.34 0.35 0.35 0.35 0.35 0.36 0.39 0.38 0.36 0.37 0.36 0.31 0.28 0.29 0.29 0.31 0.37 0.38 0.34 0.33 0.33 0.31 0.31 0.33 0.34
0.20 0.22 0.25 0.24 0.25 0.29 0.28 0.26 0.25 0.25 0.23 0.20 0.21 0.22 0.23 0.21 0.22 0.24 0.30 0.33 0.35 0.35 0.33 0.31 0.30 0.28 0.29 0.28 0.26 0.27 0.30 0.31 0.30 0.31 0.35 0.37 0.31 0.30 0.31 0.30 0.29 0.31 0.33
0.19 0.23 0.23 0.24 0.25 0.27 0.28 0.28 0.28 0.27 0.25 0.22 0.20 0.21 0.21 0.21 0.21 0.22 0.24 0.27 0.28 0.29 0.30 0.31 0.30 0.26 0.23 0.19 0.20 0.24 0.26 0.22 0.21 0.24 0.29 0.35 0.33 0.30 0.31 0.31 0.28 0.30 0.32